Peyton, CO

3:37 AM MST on February 26, 2017 (GMT -0700)
Meadow Lake

Weather History for KFLY - December, 2012

Change the Weather History Date:

Saturday, December 29, 2012

  Actual Average (KCOS) Record (KCOS)
Temperature  
Mean Temperature 17 °F -  
Max Temperature 33 °F 36 °F 64 °F (1956)
Min Temperature 1 °F 14 °F -8 °F (1983)
Degree Days  
Heating Degree Days 48    
Moisture  
Dew Point -3 °F    
Average Humidity 43    
Maximum Humidity 63    
Minimum Humidity 20    
Precipitation  
Precipitation 0.00 in - - ()
Sea Level Pressure  
Sea Level Pressure 30.04 in    
Wind  
Wind Speed 6 mph (WSW)    
Max Wind Speed 14 mph    
Max Gust Speed 21 mph    
Visibility 10 miles    
Events      
Averages and records for this station are not official NWS values.
T = Trace of Precipitation, MM = Missing Value Source: NWS Daily Summary

Daily Weather History Graph

Daily Weather History Graph

Search for Another Location

Airport or City:

Trip Planner

Search our weather history database for the weather conditions in past years. The results will help you decide how hot, cold, wet, or windy it might be!

Date:

Astronomy

Dec. 29, 2012 Rise Set
Actual Time 7:16 AM MST 4:44 PM MST
Civil Twilight 6:46 AM MST 5:14 PM MST
Nautical Twilight 6:13 AM MST 5:48 PM MST
Astronomical Twilight 5:40 AM MST 6:20 PM MST
Moon 6:19 PM MST (12/29) 7:52 AM MST (12/29)
Length of Visible Light 10h 28m
Length of Day
9h 28m
Full, 98% of the Moon is Illuminated
Dec 29
Full
Jan 4
Last Quarter
Jan 11
New
Jan 18
First Quarter
Jan 26
Full

Hourly Weather History & Observations

Time (MST) Temp. Windchill Dew Point Humidity Pressure Visibility Wind Dir Wind Speed Gust Speed Precip Events Conditions
12:14 AM 10.0 °F -1.9 °F -3.8 °F 54% 30.07 in 10.0 mi WNW 8.1 mph - N/A   Clear
12:34 AM 5.5 °F -6.3 °F -5.1 °F 62% 30.07 in 10.0 mi NW 6.9 mph - N/A   Clear
12:54 AM 5.9 °F -4.5 °F -5.1 °F 61% 30.06 in 10.0 mi NW 5.8 mph - N/A   Clear
1:14 AM 6.3 °F -5.4 °F -4.9 °F 60% 30.06 in 10.0 mi NW 6.9 mph - N/A   Clear
1:34 AM 6.1 °F -6.8 °F -5.8 °F 58% 30.07 in 10.0 mi NW 8.1 mph - N/A   Clear
1:54 AM 6.4 °F -0.5 °F -6.0 °F 57% 30.07 in 10.0 mi West 3.5 mph - N/A   Clear
2:14 AM 7.7 °F -2.4 °F -6.5 °F 52% 30.07 in 10.0 mi WNW 5.8 mph - N/A   Clear
2:34 AM 7.2 °F -4.3 °F -6.9 °F 53% 30.08 in 10.0 mi NW 6.9 mph - N/A   Clear
2:54 AM 4.8 °F -5.8 °F -8.5 °F 54% 30.08 in 10.0 mi WNW 5.8 mph - N/A   Clear
3:14 AM 4.6 °F -4.5 °F -7.8 °F 57% 30.08 in 10.0 mi West 4.6 mph - N/A   Clear
3:34 AM 10.6 °F - -8.1 °F 43% 30.09 in 10.0 mi Calm Calm - N/A   Clear
3:54 AM 11.7 °F - -8.9 °F 39% 30.08 in 10.0 mi Calm Calm - N/A   Clear
4:14 AM 7.2 °F - -8.9 °F 48% 30.08 in 10.0 mi Calm Calm - N/A   Clear
4:34 AM 1.2 °F -8.5 °F -9.8 °F 60% 30.09 in 10.0 mi WNW 4.6 mph - N/A   Clear
4:54 AM 4.5 °F -4.7 °F -8.9 °F 54% 30.08 in 10.0 mi WNW 4.6 mph - N/A   Clear
5:14 AM 3.0 °F -9.3 °F -8.5 °F 59% 30.09 in 10.0 mi WNW 6.9 mph - N/A   Clear
5:34 AM 2.1 °F -9.0 °F -8.1 °F 62% 30.09 in 10.0 mi West 5.8 mph - N/A   Clear
5:54 AM 1.9 °F -9.2 °F -8.0 °F 63% 30.10 in 10.0 mi WNW 5.8 mph - N/A   Clear
6:14 AM 1.9 °F -9.2 °F -8.7 °F 61% 30.10 in 10.0 mi West 5.8 mph - N/A   Clear
6:34 AM 1.9 °F -10.6 °F -8.1 °F 63% 30.11 in 10.0 mi West 6.9 mph - N/A   Clear
6:54 AM 6.4 °F -5.2 °F -6.3 °F 56% 30.12 in 10.0 mi West 6.9 mph - N/A   Clear
7:14 AM 6.4 °F -5.2 °F -6.3 °F 56% 30.12 in 10.0 mi West 6.9 mph - N/A   Clear
7:34 AM 5.4 °F -6.5 °F -6.0 °F 60% 30.12 in 10.0 mi West 6.9 mph - N/A   Clear
7:54 AM 10.8 °F 1.2 °F -3.3 °F 53% 30.12 in 10.0 mi West 5.8 mph - N/A   Clear
8:14 AM 14.7 °F 5.9 °F -0.0 °F 52% 30.12 in 10.0 mi West 5.8 mph - N/A   Clear
8:34 AM 20.5 °F 15.6 °F 1.6 °F 44% 30.14 in 10.0 mi West 3.5 mph - N/A   Clear
8:54 AM 23.7 °F 17.8 °F -0.8 °F 35% 30.14 in 10.0 mi WSW 4.6 mph - N/A   Clear
9:14 AM 25.5 °F 21.3 °F -3.5 °F 28% 30.14 in 10.0 mi SSW 3.5 mph - N/A   Clear
9:34 AM 27.1 °F 20.7 °F -3.6 °F 26% 30.14 in 10.0 mi SSW 5.8 mph - N/A   Clear
9:54 AM 28.8 °F 21.7 °F -2.0 °F 27% 30.15 in 10.0 mi South 6.9 mph - N/A   Clear
10:14 AM 28.4 °F 20.4 °F -2.6 °F 26% 30.15 in 10.0 mi SSW 8.1 mph - N/A   Clear
10:34 AM 30.6 °F 24.7 °F -2.9 °F 24% 30.14 in 10.0 mi SSE 5.8 mph - N/A   Clear
10:54 AM 31.3 °F 24.7 °F -5.4 °F 20% 30.11 in 10.0 mi SSE 6.9 mph - N/A   Clear
11:14 AM 31.5 °F 24.9 °F -4.0 °F 22% 30.10 in 10.0 mi South 6.9 mph - N/A   Clear
11:34 AM 32.4 °F 25.3 °F -4.2 °F 21% 30.10 in 10.0 mi South 8.1 mph - N/A   Clear
11:54 AM 32.9 °F 24.1 °F -2.9 °F 22% 30.09 in 10.0 mi South 11.5 mph - N/A   Clear
12:14 PM 32.0 °F 23.6 °F -3.6 °F 22% 30.08 in 10.0 mi South 10.4 mph 17.3 mph N/A   Clear
12:34 PM 32.0 °F 22.5 °F -3.5 °F 22% 30.07 in 10.0 mi SSW 12.7 mph 20.7 mph N/A   Clear
12:54 PM 33.8 °F 24.3 °F -3.3 °F 20% 30.07 in 10.0 mi SSW 13.8 mph - N/A   Clear
1:14 PM 33.8 °F 24.3 °F -3.8 °F 20% 30.06 in 10.0 mi South 13.8 mph - N/A   Clear
1:34 PM 33.6 °F 24.6 °F -4.2 °F 20% 30.05 in 10.0 mi South 12.7 mph - N/A   Clear
1:54 PM 31.6 °F 22.6 °F -2.6 °F 23% 30.05 in 10.0 mi South 11.5 mph - N/A   Clear
2:14 PM 33.1 °F 24.9 °F -3.5 °F 21% 30.05 in 10.0 mi SSW 10.4 mph - N/A   Clear
2:34 PM 33.8 °F 25.8 °F -3.5 °F 20% 30.05 in 10.0 mi South 10.4 mph 16.1 mph N/A   Clear
2:54 PM 31.6 °F 23.1 °F -1.3 °F 24% 30.05 in 10.0 mi South 10.4 mph - N/A   Clear
3:14 PM 31.8 °F 22.8 °F -0.6 °F 25% 30.04 in 10.0 mi South 11.5 mph - N/A   Clear
3:34 PM 28.6 °F 21.5 °F 0.1 °F 30% 30.04 in 10.0 mi South 6.9 mph - N/A   Clear
4:14 PM 26.6 °F 21.2 °F 1.9 °F 35% 30.03 in 10.0 mi SSW 4.6 mph - N/A   Clear
4:34 PM 24.3 °F 19.9 °F 2.7 °F 39% 30.02 in 10.0 mi SSW 3.5 mph - N/A   Clear
4:54 PM 22.1 °F 17.4 °F 1.8 °F 41% 30.02 in 10.0 mi SSW 3.5 mph - N/A   Clear
5:14 PM 22.1 °F - 1.0 °F 40% 30.02 in 10.0 mi Calm Calm - N/A   Clear
5:34 PM 21.4 °F 13.8 °F 1.9 °F 43% 30.01 in 10.0 mi SW 5.8 mph - N/A   Clear
5:54 PM 20.7 °F 13.0 °F 1.9 °F 44% 30.00 in 10.0 mi WSW 5.8 mph - N/A   Clear
6:14 PM 20.1 °F 13.6 °F 1.0 °F 44% 30.00 in 10.0 mi WSW 4.6 mph - N/A   Clear
6:34 PM 18.3 °F 13.1 °F 1.2 °F 47% 30.00 in 10.0 mi West 3.5 mph - N/A   Clear
6:54 PM 15.8 °F 10.2 °F 1.4 °F 53% 29.99 in 10.0 mi West 3.5 mph - N/A   Clear
7:14 PM 18.1 °F 8.9 °F 2.3 °F 50% 29.98 in 10.0 mi SSW 6.9 mph - N/A   Clear
7:54 PM 19.4 °F 12.8 °F 1.9 °F 47% 29.95 in 10.0 mi SW 4.6 mph - N/A   Clear
8:14 PM 19.0 °F 10.0 °F 2.3 °F 48% 29.93 in 10.0 mi SSW 6.9 mph - N/A   Clear
8:34 PM 18.5 °F 8.4 °F 2.5 °F 50% 29.93 in 10.0 mi SW 8.1 mph - N/A   Clear
8:54 PM 20.3 °F 9.0 °F 2.8 °F 47% 29.92 in 10.0 mi SSW 10.4 mph - N/A   Clear
9:14 PM 18.7 °F 7.8 °F 2.3 °F 49% 29.92 in 10.0 mi WSW 9.2 mph - N/A   Clear
9:34 PM 20.1 °F 7.5 °F 2.7 °F 47% 29.92 in 10.0 mi SSW 12.7 mph - N/A   Clear
9:54 PM 19.0 °F 8.2 °F 3.2 °F 50% 29.91 in 10.0 mi SW 9.2 mph - N/A   Clear
10:14 PM 16.5 °F 6.9 °F 2.5 °F 54% 29.90 in 10.0 mi SW 6.9 mph - N/A   Clear
10:34 PM 16.0 °F 8.8 °F 2.5 °F 55% 29.89 in 10.0 mi West 4.6 mph - N/A   Clear
10:54 PM 13.8 °F 6.2 °F 2.3 °F 60% 29.88 in 10.0 mi West 4.6 mph - N/A   Clear
11:14 PM 15.6 °F 10.0 °F 0.9 °F 52% 29.87 in 10.0 mi West 3.5 mph - N/A   Clear
11:34 PM 18.3 °F 13.1 °F -0.2 °F 44% 29.86 in 10.0 mi SW 3.5 mph - N/A   Clear
11:54 PM 19.2 °F - -0.4 °F 42% 29.86 in 10.0 mi Calm Calm - N/A   Clear